| time (UTC) | temp F | wind direction | speed knots | gust knots | rain 1hr in | rain 24hr in | rain mn in | humidity % | barometer mb |
| 20260902113052 | 56 | 42 | 0.9 | 3.5 | 0.00 | 0.00 | 0.00 | 29 | 1019.3 |
| 20260902112539 | 56 | 52 | 0.0 | 13.9 | 0.00 | 0.00 | 0.00 | 27 | 1019.1 |
| 20260902112038 | 57 | 288 | 7.8 | 13.9 | 0.00 | 0.00 | 0.00 | 28 | 1018.8 |
| 20260902111538 | 57 | 276 | 9.6 | 13.9 | 0.00 | 0.00 | 0.00 | 27 | 1018.5 |
| 20260902111036 | 57 | 271 | 7.8 | 12.2 | 0.00 | 0.00 | 0.00 | 27 | 1018.6 |
| 20260902110535 | 56 | 251 | 6.1 | 10.4 | 0.00 | 0.00 | 0.00 | 27 | 1018.6 |
| 20260902110034 | 54 | 261 | 4.3 | 7.8 | 0.00 | 0.00 | 0.00 | 27 | 1018.8 |
| 20260902105534 | 54 | 234 | 1.7 | 3.5 | 0.00 | 0.00 | 0.00 | 27 | 1018.9 |
| 20260902105032 | 56 | 275 | 0.0 | 0.9 | 0.00 | 0.00 | 0.00 | 26 | 1018.8 |
| 20260902104544 | 57 | 285 | 0.0 | 0.9 | 0.00 | 0.00 | 0.00 | 26 | 1018.9 |
| 20260902104031 | 58 | 285 | 0.0 | 0.9 | 0.00 | 0.00 | 0.00 | 25 | 1018.8 |
| 20260902103530 | 58 | 285 | 0.0 | 4.3 | 0.00 | 0.00 | 0.00 | 25 | 1018.8 |
| 20260902103031 | 57 | 9 | 0.0 | 7.0 | 0.00 | 0.00 | 0.00 | 26 | 1018.7 |
| 20260902102531 | 57 | 271 | 0.9 | 7.0 | 0.00 | 0.00 | 0.00 | 26 | 1018.6 |
| 20260902102030 | 57 | 242 | 1.7 | 6.1 | 0.00 | 0.00 | 0.00 | 26 | 1018.4 |
| 20260902101536 | 57 | 227 | 0.9 | 5.2 | 0.00 | 0.00 | 0.00 | 26 | 1018.3 |
| 20260902101029 | 57 | 178 | 0.9 | 5.2 | 0.00 | 0.00 | 0.00 | 27 | 1018.1 |
| 20260902100531 | 57 | 205 | 0.0 | 7.0 | 0.00 | 0.00 | 0.00 | 27 | 1018.2 |
| 20260902100029 | 56 | 253 | 0.9 | 7.0 | 0.00 | 0.00 | 0.00 | 27 | 1018.4 |
| 20260902095528 | 56 | 218 | 0.0 | 0.9 | 0.00 | 0.00 | 0.00 | 28 | 1018.6 |
| 20260902095026 | 57 | 298 | 0.0 | 0.9 | 0.00 | 0.00 | 0.00 | 28 | 1018.7 |
| 20260902094524 | 58 | 329 | 0.0 | 1.7 | 0.00 | 0.00 | 0.00 | 28 | 1018.8 |
| 20260902094023 | 59 | 345 | 0.0 | 7.8 | 0.00 | 0.00 | 0.00 | 27 | 1018.8 |
| 20260902093522 | 59 | 348 | 0.0 | 8.7 | 0.00 | 0.00 | 0.00 | 26 | 1018.8 |
| 20260902093025 | 59 | 277 | 1.7 | 11.3 | 0.00 | 0.00 | 0.00 | 26 | 1018.8 |
| 20260902092523 | 59 | 263 | 3.5 | 10.4 | 0.00 | 0.00 | 0.00 | 27 | 1018.6 |
| 20260902092020 | 59 | 238 | 2.6 | 11.3 | 0.00 | 0.00 | 0.00 | 26 | 1018.5 |
| 20260902091519 | 59 | 233 | 5.2 | 12.2 | 0.00 | 0.00 | 0.00 | 27 | 1018.4 |
| 20260902091018 | 59 | 236 | 4.3 | 13.0 | 0.00 | 0.00 | 0.00 | 27 | 1018.3 |
| 20260902090519 | 59 | 267 | 6.1 | 13.0 | 0.00 | 0.00 | 0.00 | 28 | 1018.2 |
| 20260902090017 | 60 | 225 | 6.1 | 13.0 | 0.00 | 0.00 | 0.00 | 28 | 1018.2 |
| 20260902085515 | 60 | 219 | 7.8 | 13.0 | 0.00 | 0.00 | 0.00 | 28 | 1018.1 |
| 20260902085014 | 60 | 200 | 7.8 | 18.2 | 0.00 | 0.00 | 0.00 | 28 | 1018.1 |
| 20260902084514 | 60 | 211 | 10.4 | 19.1 | 0.00 | 0.00 | 0.00 | 28 | 1017.9 |
| 20260902084013 | 60 | 209 | 11.3 | 18.2 | 0.00 | 0.00 | 0.00 | 28 | 1017.8 |
| 20260902083512 | 61 | 232 | 8.7 | 19.1 | 0.00 | 0.00 | 0.00 | 28 | 1017.9 |
| 20260902083011 | 61 | 199 | 9.6 | 19.1 | 0.00 | 0.00 | 0.00 | 27 | 1017.7 |
| 20260902082511 | 61 | 172 | 10.4 | 17.4 | 0.00 | 0.00 | 0.00 | 27 | 1017.6 |
| 20260902082009 | 61 | 192 | 10.4 | 18.2 | 0.00 | 0.00 | 0.00 | 27 | 1017.6 |
| 20260902081512 | 62 | 260 | 10.4 | 20.0 | 0.00 | 0.00 | 0.00 | 26 | 1017.6 |
| 20260902081007 | 62 | 228 | 8.7 | 18.2 | 0.00 | 0.00 | 0.00 | 24 | 1017.5 |
| 20260902080507 | 62 | 235 | 5.2 | 13.9 | 0.00 | 0.00 | 0.00 | 23 | 1017.5 |
| 20260902080005 | 62 | 246 | 8.7 | 17.4 | 0.00 | 0.00 | 0.00 | 22 | 1017.3 |
| 20260902075504 | 61 | 235 | 5.2 | 14.8 | 0.00 | 0.00 | 0.00 | 25 | 1017.2 |
| 20260902075002 | 61 | 190 | 5.2 | 14.8 | 0.00 | 0.00 | 0.00 | 27 | 1017.2 |
| 20260902074502 | 61 | 246 | 4.3 | 13.9 | 0.00 | 0.00 | 0.00 | 28 | 1017.2 |
| 20260902074002 | 61 | 250 | 7.0 | 13.0 | 0.00 | 0.00 | 0.00 | 28 | 1017.3 |
| 20260902073600 | 61 | 250 | 5.2 | 13.0 | 0.00 | 0.00 | 0.00 | 27 | 1017.3 |
| 20260902073100 | 61 | 227 | 8.7 | 13.9 | 0.00 | 0.00 | 0.00 | 27 | 1017.3 |
| 20260902072600 | 61 | 276 | 4.3 | 19.1 | 0.00 | 0.00 | 0.00 | 27 | 1017.4 |
| 20260902072058 | 61 | 219 | 8.7 | 19.1 | 0.00 | 0.00 | 0.00 | 26 | 1017.4 |
| 20260902071557 | 62 | 295 | 5.2 | 18.2 | 0.00 | 0.00 | 0.00 | 26 | 1017.2 |
| 20260902071058 | 62 | 269 | 6.1 | 18.2 | 0.00 | 0.00 | 0.00 | 26 | 1017.0 |
| 20260902070554 | 62 | 239 | 5.2 | 9.6 | 0.00 | 0.00 | 0.00 | 25 | 1017.0 |
| 20260902070052 | 62 | 247 | 4.3 | 13.0 | 0.00 | 0.00 | 0.00 | 25 | 1016.9 |
| 20260902065551 | 62 | 247 | 4.3 | 13.0 | 0.00 | 0.00 | 0.00 | 24 | 1016.9 |
| 20260902065051 | 62 | 240 | 5.2 | 13.9 | 0.00 | 0.00 | 0.00 | 24 | 1016.7 |
| 20260902064552 | 63 | 320 | 6.1 | 14.8 | 0.00 | 0.00 | 0.00 | 24 | 1016.8 |
| 20260902064050 | 63 | 296 | 5.2 | 16.5 | 0.00 | 0.00 | 0.00 | 24 | 1016.8 |
| 20260902063549 | 63 | 238 | 8.7 | 16.5 | 0.00 | 0.00 | 0.00 | 24 | 1016.6 |
| 20260902063048 | 63 | 262 | 6.1 | 19.1 | 0.00 | 0.00 | 0.00 | 23 | 1016.5 |
| 20260902062547 | 63 | 225 | 9.6 | 17.4 | 0.00 | 0.00 | 0.00 | 23 | 1016.2 |
| 20260902062046 | 63 | 238 | 9.6 | 19.1 | 0.00 | 0.00 | 0.00 | 24 | 1016.1 |
| 20260902061549 | 63 | 233 | 13.0 | 20.9 | 0.00 | 0.00 | 0.00 | 24 | 1015.9 |
| 20260902061044 | 64 | 235 | 12.2 | 20.9 | 0.00 | 0.00 | 0.00 | 24 | 1015.7 |
| 20260902060546 | 64 | 192 | 12.2 | 23.5 | 0.00 | 0.00 | 0.00 | 24 | 1015.4 |
| 20260902060042 | 64 | 223 | 13.0 | 21.7 | 0.00 | 0.00 | 0.00 | 23 | 1015.2 |
| 20260902055541 | 64 | 191 | 14.8 | 27.8 | 0.00 | 0.00 | 0.00 | 23 | 1015.0 |
| 20260902055040 | 64 | 247 | 14.8 | 27.8 | 0.00 | 0.00 | 0.00 | 23 | 1014.9 |
| 20260902054542 | 64 | 188 | 14.8 | 26.1 | 0.00 | 0.00 | 0.00 | 23 | 1014.9 |
| 20260902054040 | 65 | 192 | 14.8 | 23.5 | 0.00 | 0.00 | 0.00 | 22 | 1014.9 |
| 20260902053540 | 64 | 209 | 13.9 | 24.3 | 0.00 | 0.00 | 0.00 | 22 | 1014.8 |
| 20260902053040 | 64 | 187 | 12.2 | 20.9 | 0.00 | 0.00 | 0.00 | 23 | 1014.7 |
| 20260902052540 | 65 | 221 | 10.4 | 21.7 | 0.00 | 0.00 | 0.00 | 23 | 1014.7 |
| 20260902052039 | 65 | 233 | 13.9 | 22.6 | 0.00 | 0.00 | 0.00 | 22 | 1014.6 |
| 20260902051538 | 65 | 200 | 15.6 | 25.2 | 0.00 | 0.00 | 0.00 | 22 | 1014.7 |
| 20260902051038 | 65 | 206 | 15.6 | 25.2 | 0.00 | 0.00 | 0.00 | 22 | 1014.6 |
| 20260902050540 | 65 | 226 | 13.9 | 27.8 | 0.00 | 0.00 | 0.00 | 21 | 1014.5 |
| 20260902050038 | 65 | 206 | 14.8 | 27.8 | 0.00 | 0.00 | 0.00 | 21 | 1014.4 |
| 20260902045536 | 65 | 207 | 14.8 | 26.1 | 0.00 | 0.00 | 0.00 | 21 | 1014.3 |
| 20260902045041 | 66 | 209 | 16.5 | 26.1 | 0.00 | 0.00 | 0.00 | 21 | 1014.1 |
| 20260902044541 | 66 | 195 | 17.4 | 24.3 | 0.00 | 0.00 | 0.00 | 20 | 1014.1 |
| 20260902044039 | 66 | 196 | 14.8 | 24.3 | 0.00 | 0.00 | 0.00 | 20 | 1014.0 |
| 20260902043538 | 66 | 238 | 14.8 | 26.1 | 0.00 | 0.00 | 0.00 | 20 | 1014.0 |
| 20260902043043 | 66 | 192 | 15.6 | 25.2 | 0.00 | 0.00 | 0.00 | 20 | 1013.8 |
| 20260902042538 | 66 | 216 | 15.6 | 26.1 | 0.00 | 0.00 | 0.00 | 20 | 1014.2 |
| 20260902042035 | 66 | 278 | 17.4 | 29.5 | 0.00 | 0.00 | 0.00 | 19 | 1013.7 |
| 20260902041534 | 67 | 248 | 15.6 | 27.8 | 0.00 | 0.00 | 0.00 | 19 | 1013.7 |
| 20260902041034 | 67 | 228 | 15.6 | 27.8 | 0.00 | 0.00 | 0.00 | 19 | 1014.0 |
| 20260902040532 | 67 | 197 | 13.9 | 25.2 | 0.00 | 0.00 | 0.00 | 19 | 1013.9 |
| 20260902040032 | 67 | 192 | 13.0 | 25.2 | 0.00 | 0.00 | 0.00 | 19 | 1013.8 |
| 20260902035529 | 67 | 221 | 15.6 | 23.5 | 0.00 | 0.00 | 0.00 | 19 | 1013.7 |
| 20260902035029 | 67 | 207 | 11.3 | 25.2 | 0.00 | 0.00 | 0.00 | 18 | 1013.7 |
| 20260902034529 | 67 | 227 | 12.2 | 24.3 | 0.00 | 0.00 | 0.00 | 18 | 1013.7 |
| 20260902034028 | 67 | 230 | 13.0 | 24.3 | 0.00 | 0.00 | 0.00 | 19 | 1013.9 |
| 20260902033526 | 68 | 263 | 9.6 | 22.6 | 0.00 | 0.00 | 0.00 | 19 | 1014.0 |
| 20260902033027 | 68 | 211 | 12.2 | 22.6 | 0.00 | 0.00 | 0.00 | 18 | 1013.9 |
| 20260902032525 | 68 | 225 | 6.1 | 16.5 | 0.00 | 0.00 | 0.00 | 18 | 1013.9 |
| 20260902032026 | 68 | 254 | 7.0 | 17.4 | 0.00 | 0.00 | 0.00 | 17 | 1013.9 |
| 20260902031535 | 68 | 243 | 9.6 | 21.7 | 0.00 | 0.00 | 0.00 | 17 | 1013.9 |
| 20260902031029 | 69 | 246 | 8.7 | 21.7 | 0.00 | 0.00 | 0.00 | 17 | 1013.6 |
| 20260902030524 | 69 | 224 | 10.4 | 25.2 | 0.00 | 0.00 | 0.00 | 18 | 1013.6 |
| 20260902030028 | 69 | 215 | 12.2 | 23.5 | 0.00 | 0.00 | 0.00 | 18 | 1013.4 |
| 20260902025523 | 69 | 198 | 7.8 | 21.7 | 0.00 | 0.00 | 0.00 | 18 | 1013.3 |
| 20260902025022 | 69 | 229 | 11.3 | 20.9 | 0.00 | 0.00 | 0.00 | 17 | 1013.4 |
| 20260902024522 | 69 | 243 | 10.4 | 24.3 | 0.00 | 0.00 | 0.00 | 18 | 1013.2 |
| 20260902024021 | 69 | 231 | 13.0 | 24.3 | 0.00 | 0.00 | 0.00 | 18 | 1013.4 |
| 20260902023522 | 70 | 200 | 7.8 | 20.0 | 0.00 | 0.00 | 0.00 | 17 | 1013.3 |
| 20260902023030 | 70 | 211 | 12.2 | 20.0 | 0.00 | 0.00 | 0.00 | 17 | 1013.3 |
| 20260902022522 | 70 | 248 | 8.7 | 19.1 | 0.00 | 0.00 | 0.00 | 17 | 1013.1 |
| 20260902022029 | 70 | 244 | 12.2 | 20.0 | 0.00 | 0.00 | 0.00 | 17 | 1013.1 |
| 20260902021520 | 71 | 178 | 11.3 | 21.7 | 0.00 | 0.00 | 0.00 | 16 | 1012.9 |
| 20260902021020 | 71 | 198 | 13.0 | 21.7 | 0.00 | 0.00 | 0.00 | 17 | 1012.9 |
| 20260902020520 | 71 | 191 | 13.0 | 20.0 | 0.00 | 0.00 | 0.00 | 16 | 1012.9 |
| 20260902020025 | 72 | 259 | 12.2 | 25.2 | 0.00 | 0.00 | 0.00 | 16 | 1012.9 |
| 20260902015519 | 72 | 173 | 12.2 | 22.6 | 0.00 | 0.00 | 0.00 | 16 | 1012.8 |
| 20260902015019 | 72 | 218 | 14.8 | 22.6 | 0.00 | 0.00 | 0.00 | 15 | 1012.4 |
| 20260902014522 | 72 | 252 | 13.0 | 26.1 | 0.00 | 0.00 | 0.00 | 16 | 1012.8 |
| 20260902014019 | 72 | 165 | 13.0 | 26.1 | 0.00 | 0.00 | 0.00 | 15 | 1012.6 |
| 20260902013522 | 73 | 232 | 13.9 | 26.1 | 0.00 | 0.00 | 0.00 | 15 | 1012.5 |
| 20260902013019 | 73 | 232 | 13.9 | 26.1 | 0.00 | 0.00 | 0.00 | 15 | 1012.6 |
| 20260902012519 | 74 | 175 | 13.9 | 26.1 | 0.00 | 0.00 | 0.00 | 15 | 1012.5 |
| 20260902012118 | 74 | 236 | 13.0 | 26.1 | 0.00 | 0.00 | 0.00 | 15 | 1012.5 |
| 20260902011518 | 74 | 246 | 13.9 | 24.3 | 0.00 | 0.00 | 0.00 | 15 | 1012.7 |
| 20260902011018 | 74 | 170 | 12.2 | 24.3 | 0.00 | 0.00 | 0.00 | 15 | 1012.8 |
| 20260902010518 | 74 | 246 | 13.0 | 21.7 | 0.00 | 0.00 | 0.00 | 15 | 1012.8 |
| 20260902010024 | 75 | 242 | 10.4 | 20.0 | 0.00 | 0.00 | 0.00 | 15 | 1012.8 |
| 20260902005519 | 75 | 198 | 10.4 | 18.2 | 0.00 | 0.00 | 0.00 | 15 | 1012.7 |
| 20260902005016 | 76 | 246 | 7.8 | 20.0 | 0.00 | 0.00 | 0.00 | 15 | 1012.6 |
| 20260902004520 | 77 | 180 | 13.0 | 21.7 | 0.00 | 0.00 | 0.00 | 15 | 1012.6 |
| 20260902004018 | 77 | 198 | 10.4 | 24.3 | 0.00 | 0.00 | 0.00 | 14 | 1012.6 |
| 20260902003515 | 77 | 251 | 10.4 | 23.5 | 0.00 | 0.00 | 0.00 | 14 | 1012.7 |
| 20260902003016 | 77 | 225 | 11.3 | 23.5 | 0.00 | 0.00 | 0.00 | 14 | 1012.8 |
| 20260902002516 | 77 | 189 | 13.0 | 23.5 | 0.00 | 0.00 | 0.00 | 15 | 1012.6 |
| 20260902002015 | 77 | 213 | 11.3 | 19.1 | 0.00 | 0.00 | 0.00 | 15 | 1012.7 |
| 20260902001516 | 77 | 224 | 10.4 | 21.7 | 0.00 | 0.00 | 0.00 | 15 | 1012.7 |
| 20260902001015 | 77 | 254 | 10.4 | 19.1 | 0.00 | 0.00 | 0.00 | 14 | 1012.7 |
| 20260902000514 | 77 | 240 | 13.0 | 18.2 | 0.00 | 0.00 | 0.00 | 14 | 1012.7 |
| 20260902000014 | 78 | 237 | 9.6 | 20.9 | 0.00 | 0.00 | 0.00 | 14 | 1012.6 |
| 20260901235514 | 78 | 198 | 11.3 | 24.3 | 0.00 | 0.00 | 0.00 | 13 | 1012.7 |
| 20260901235013 | 78 | 188 | 12.2 | 24.3 | 0.00 | 0.00 | 0.00 | 13 | 1012.5 |
| 20260901234514 | 78 | 208 | 10.4 | 18.2 | 0.00 | 0.00 | 0.00 | 13 | 1012.6 |
| 20260901234013 | 79 | 198 | 8.7 | 17.4 | 0.00 | 0.00 | 0.00 | 12 | 1012.7 |
| 20260901233519 | 79 | 198 | 8.7 | 15.6 | 0.00 | 0.00 | 0.00 | 12 | 1012.7 |
| 20260901233013 | 79 | 190 | 8.7 | 15.6 | 0.00 | 0.00 | 0.00 | 12 | 1012.8 |
| 20260901232513 | 79 | 222 | 9.6 | 15.6 | 0.00 | 0.00 | 0.00 | 12 | 1012.8 |
| 20260901232013 | 79 | 244 | 9.6 | 15.6 | 0.00 | 0.00 | 0.00 | 12 | 1012.7 |
| 20260901231513 | 79 | 202 | 6.1 | 15.6 | 0.00 | 0.00 | 0.00 | 12 | 1012.7 |
| 20260901231012 | 79 | 229 | 8.7 | 20.0 | 0.00 | 0.00 | 0.00 | 12 | 1012.7 |
| 20260901230512 | 79 | 288 | 9.6 | 20.0 | 0.00 | 0.00 | 0.00 | 12 | 1012.6 |
| 20260901230012 | 79 | 273 | 9.6 | 17.4 | 0.00 | 0.00 | 0.00 | 12 | 1012.6 |
| 20260901225511 | 80 | 271 | 7.8 | 20.0 | 0.00 | 0.00 | 0.00 | 12 | 1012.6 |
| 20260901225011 | 80 | 209 | 7.8 | 20.0 | 0.00 | 0.00 | 0.00 | 12 | 1012.7 |
| 20260901224522 | 80 | 219 | 8.7 | 21.7 | 0.00 | 0.00 | 0.00 | 12 | 1012.5 |
| 20260901224013 | 80 | 236 | 7.8 | 21.7 | 0.00 | 0.00 | 0.00 | 12 | 1012.5 |
| 20260901223510 | 80 | 236 | 8.7 | 18.2 | 0.00 | 0.00 | 0.00 | 12 | 1012.3 |
| 20260901223011 | 81 | 263 | 7.8 | 18.2 | 0.00 | 0.00 | 0.00 | 11 | 1012.3 |
| 20260901222510 | 81 | 254 | 7.0 | 15.6 | 0.00 | 0.00 | 0.00 | 12 | 1012.3 |
| 20260901222010 | 82 | 277 | 9.6 | 16.5 | 0.00 | 0.00 | 0.00 | 12 | 1012.3 |
| 20260901221533 | 82 | 214 | 7.8 | 16.5 | 0.00 | 0.00 | 0.00 | 12 | 1012.2 |
| 20260901221011 | 82 | 219 | 7.8 | 14.8 | 0.00 | 0.00 | 0.00 | 12 | 1012.3 |
| 20260901220509 | 82 | 197 | 5.2 | 15.6 | 0.00 | 0.00 | 0.00 | 12 | 1012.3 |
| 20260901220010 | 83 | 196 | 9.6 | 15.6 | 0.00 | 0.00 | 0.00 | 11 | 1012.3 |
| 20260901215509 | 83 | 233 | 8.7 | 16.5 | 0.00 | 0.00 | 0.00 | 9 | 1012.3 |
| 20260901215008 | 83 | 279 | 5.2 | 16.5 | 0.00 | 0.00 | 0.00 | 10 | 1012.4 |
| 20260901214507 | 83 | 218 | 5.2 | 17.4 | 0.00 | 0.00 | 0.00 | 9 | 1012.4 |
| 20260901214011 | 83 | 233 | 7.0 | 14.8 | 0.00 | 0.00 | 0.00 | 9 | 1012.5 |
| 20260901213506 | 84 | 194 | 4.3 | 14.8 | 0.00 | 0.00 | 0.00 | 9 | 1012.5 |
| 20260901213012 | 83 | 173 | 3.5 | 11.3 | 0.00 | 0.00 | 0.00 | 9 | 1012.6 |
| 20260901212505 | 83 | 306 | 5.2 | 11.3 | 0.00 | 0.00 | 0.00 | 9 | 1012.7 |
| 20260901212005 | 84 | 161 | 2.6 | 7.0 | 0.00 | 0.00 | 0.00 | 10 | 1012.8 |
| 20260901211511 | 84 | 166 | 2.6 | 8.7 | 0.00 | 0.00 | 0.00 | 10 | 1012.9 |
| 20260901211004 | 84 | 120 | 4.3 | 10.4 | 0.00 | 0.00 | 0.00 | 10 | 1013.0 |
| 20260901210504 | 84 | 70 | 7.0 | 15.6 | 0.00 | 0.00 | 0.00 | 9 | 1013.0 |
| 20260901210003 | 83 | 148 | 7.0 | 15.6 | 0.00 | 0.00 | 0.00 | 10 | 1013.0 |
| 20260901205502 | 83 | 157 | 1.7 | 10.4 | 0.00 | 0.00 | 0.00 | 10 | 1013.0 |
| 20260901205003 | 83 | 182 | 3.5 | 10.4 | 0.00 | 0.00 | 0.00 | 10 | 1013.1 |
| 20260901204503 | 84 | 202 | 2.6 | 7.0 | 0.00 | 0.00 | 0.00 | 10 | 1013.2 |
| 20260901204003 | 83 | 44 | 0.0 | 7.0 | 0.00 | 0.00 | 0.00 | 11 | 1013.2 |
| 20260901203603 | 82 | 257 | 2.6 | 10.4 | 0.00 | 0.00 | 0.00 | 11 | 1013.3 |
| 20260901203102 | 82 | 156 | 6.1 | 13.0 | 0.00 | 0.00 | 0.00 | 11 | 1013.4 |
| 20260901202559 | 84 | 237 | 4.3 | 13.0 | 0.00 | 0.00 | 0.00 | 11 | 1013.5 |
| 20260901202100 | 84 | 84 | 3.5 | 9.6 | 0.00 | 0.00 | 0.00 | 11 | 1013.5 |
| 20260901201559 | 82 | 136 | 0.9 | 13.0 | 0.00 | 0.00 | 0.00 | 11 | 1013.6 |
| 20260901201056 | 82 | 150 | 7.8 | 13.0 | 0.00 | 0.00 | 0.00 | 11 | 1013.7 |
| 20260901200556 | 81 | 177 | 7.8 | 13.0 | 0.00 | 0.00 | 0.00 | 12 | 1013.7 |
| 20260901200116 | 81 | 150 | 0.0 | 8.7 | 0.00 | 0.00 | 0.00 | 12 | 1013.8 |
| 20260901195555 | 82 | 201 | 4.3 | 9.6 | 0.00 | 0.00 | 0.00 | 12 | 1013.9 |
| 20260901195056 | 82 | 191 | 1.7 | 9.6 | 0.00 | 0.00 | 0.00 | 12 | 1014.0 |
| 20260901194607 | 81 | 88 | 5.2 | 13.0 | 0.00 | 0.00 | 0.00 | 12 | 1014.0 |
| 20260901194056 | 80 | 162 | 7.8 | 13.0 | 0.00 | 0.00 | 0.00 | 12 | 1014.2 |
| 20260901193553 | 80 | 146 | 5.2 | 13.0 | 0.00 | 0.00 | 0.00 | 13 | 1014.2 |
| 20260901193054 | 80 | 132 | 7.0 | 13.0 | 0.00 | 0.00 | 0.00 | 13 | 1014.1 |
| 20260901192557 | 80 | 180 | 6.1 | 13.9 | 0.00 | 0.00 | 0.00 | 13 | 1014.1 |
| 20260901192051 | 79 | 181 | 5.2 | 14.8 | 0.00 | 0.00 | 0.00 | 13 | 1014.3 |
| 20260901191629 | 79 | 140 | 7.0 | 14.8 | 0.00 | 0.00 | 0.00 | 13 | 1014.2 |
| 20260901191054 | 78 | 216 | 4.3 | 14.8 | 0.00 | 0.00 | 0.00 | 13 | 1014.2 |
| 20260901190551 | 78 | 163 | 7.0 | 13.0 | 0.00 | 0.00 | 0.00 | 13 | 1014.3 |
| 20260901190059 | 79 | 194 | 7.8 | 14.8 | 0.00 | 0.00 | 0.00 | 13 | 1014.4 |
| 20260901185551 | 79 | 144 | 4.3 | 11.3 | 0.00 | 0.00 | 0.00 | 13 | 1014.3 |
| 20260901185050 | 79 | 186 | 5.2 | 11.3 | 0.00 | 0.00 | 0.00 | 13 | 1014.3 |
| 20260901184549 | 79 | 220 | 2.6 | 11.3 | 0.00 | 0.00 | 0.00 | 14 | 1014.3 |
| 20260901184050 | 79 | 108 | 6.1 | 13.9 | 0.00 | 0.00 | 0.00 | 14 | 1014.5 |
| 20260901183553 | 79 | 172 | 7.8 | 14.8 | 0.00 | 0.00 | 0.00 | 15 | 1014.3 |
| 20260901183054 | 79 | 211 | 6.1 | 10.4 | 0.00 | 0.00 | 0.00 | 15 | 1014.3 |
| 20260901182549 | 79 | 180 | 3.5 | 8.7 | 0.00 | 0.00 | 0.00 | 15 | 1014.4 |
| 20260901182049 | 80 | 271 | 0.9 | 12.2 | 0.00 | 0.00 | 0.00 | 14 | 1014.5 |
| 20260901181610 | 80 | 76 | 2.6 | 12.2 | 0.00 | 0.00 | 0.00 | 15 | 1014.5 |
| 20260901181053 | 80 | 142 | 2.6 | 8.7 | 0.00 | 0.00 | 0.00 | 15 | 1014.5 |
| 20260901180549 | 80 | 178 | 4.3 | 8.7 | 0.00 | 0.00 | 0.00 | 15 | 1014.6 |
| 20260901180048 | 80 | 84 | 1.7 | 5.2 | 0.00 | 0.00 | 0.00 | 15 | 1014.6 |
| 20260901175546 | 78 | 338 | 0.0 | 6.1 | 0.00 | 0.00 | 0.00 | 16 | 1014.7 |
| 20260901175049 | 76 | 65 | 2.6 | 10.4 | 0.00 | 0.00 | 0.00 | 16 | 1014.7 |
| 20260901174546 | 76 | 250 | 5.2 | 12.2 | 0.00 | 0.00 | 0.00 | 16 | 1014.7 |
| 20260901174049 | 77 | 273 | 6.1 | 10.4 | 0.00 | 0.00 | 0.00 | 16 | 1014.7 |
| 20260901173549 | 77 | 216 | 2.6 | 7.8 | 0.00 | 0.00 | 0.00 | 16 | 1014.8 |
| 20260901173045 | 78 | 350 | 2.6 | 9.6 | 0.00 | 0.00 | 0.00 | 16 | 1014.8 |
| 20260901172547 | 78 | 311 | 2.6 | 7.0 | 0.00 | 0.00 | 0.00 | 15 | 1014.7 |
| 20260901172044 | 77 | 291 | 0.9 | 7.0 | 0.00 | 0.00 | 0.00 | 16 | 1014.6 |
| 20260901171543 | 76 | 5 | 0.9 | 7.0 | 0.00 | 0.00 | 0.00 | 16 | 1014.7 |
| 20260901171041 | 75 | 355 | 2.6 | 8.7 | 0.00 | 0.00 | 0.00 | 16 | 1014.7 |
| 20260901170542 | 74 | 218 | 5.2 | 8.7 | 0.00 | 0.00 | 0.00 | 17 | 1014.8 |
| 20260901170051 | 73 | 230 | 1.7 | 9.6 | 0.00 | 0.00 | 0.00 | 17 | 1014.8 |
| 20260901165538 | 73 | 278 | 5.2 | 12.2 | 0.00 | 0.00 | 0.00 | 18 | 1014.8 |
| 20260901165037 | 73 | 266 | 4.3 | 12.2 | 0.00 | 0.00 | 0.00 | 18 | 1014.8 |
| 20260901164540 | 73 | 234 | 2.6 | 10.4 | 0.00 | 0.00 | 0.00 | 18 | 1014.8 |
| 20260901164036 | 72 | 275 | 6.1 | 13.0 | 0.00 | 0.00 | 0.00 | 17 | 1014.8 |
| 20260901163536 | 72 | 227 | 4.3 | 13.0 | 0.00 | 0.00 | 0.00 | 18 | 1014.8 |
| 20260901163043 | 72 | 240 | 7.0 | 11.3 | 0.00 | 0.00 | 0.00 | 18 | 1014.8 |
| 20260901162536 | 72 | 244 | 4.3 | 10.4 | 0.00 | 0.00 | 0.00 | 18 | 1014.8 |
| 20260901162035 | 71 | 209 | 4.3 | 11.3 | 0.00 | 0.00 | 0.00 | 18 | 1014.9 |
| 20260901161538 | 72 | 319 | 3.5 | 12.2 | 0.00 | 0.00 | 0.00 | 18 | 1015.0 |
| 20260901161035 | 71 | 296 | 6.1 | 11.3 | 0.00 | 0.00 | 0.00 | 18 | 1015.0 |
| 20260901160534 | 71 | 317 | 1.7 | 8.7 | 0.00 | 0.00 | 0.00 | 19 | 1015.0 |
| 20260901160041 | 71 | 240 | 2.6 | 8.7 | 0.00 | 0.00 | 0.00 | 19 | 1015.1 |
| 20260901155534 | 72 | 260 | 2.6 | 7.0 | 0.00 | 0.00 | 0.00 | 18 | 1015.1 |
| 20260901155033 | 71 | 327 | 0.0 | 6.1 | 0.00 | 0.00 | 0.00 | 19 | 1015.1 |
| 20260901154534 | 70 | 234 | 0.0 | 6.1 | 0.00 | 0.00 | 0.00 | 20 | 1015.0 |
| 20260901154032 | 70 | 227 | 0.0 | 6.1 | 0.00 | 0.00 | 0.00 | 20 | 1015.1 |
| 20260901153532 | 70 | 279 | 0.9 | 6.1 | 0.00 | 0.00 | 0.00 | 21 | 1015.1 |
| 20260901153032 | 69 | 192 | 0.0 | 1.7 | 0.00 | 0.00 | 0.00 | 21 | 1015.0 |
| 20260901152534 | 69 | 294 | 0.0 | 3.5 | 0.00 | 0.00 | 0.00 | 22 | 1015.0 |
| 20260901152031 | 69 | 225 | 0.0 | 7.8 | 0.00 | 0.00 | 0.00 | 23 | 1015.0 |
| 20260901151539 | 69 | 267 | 0.9 | 4.3 | 0.00 | 0.00 | 0.00 | 22 | 1015.1 |
| 20260901151031 | 69 | 243 | 0.0 | 6.1 | 0.00 | 0.00 | 0.00 | 22 | 1015.2 |
| 20260901150530 | 69 | 238 | 0.9 | 8.7 | 0.00 | 0.00 | 0.00 | 21 | 1015.1 |
| 20260901150038 | 69 | 279 | 0.0 | 8.7 | 0.00 | 0.00 | 0.00 | 22 | 1015.2 |
| 20260901145530 | 68 | 274 | 1.7 | 6.1 | 0.00 | 0.00 | 0.00 | 22 | 1015.2 |
| 20260901145030 | 68 | 263 | 0.9 | 10.4 | 0.00 | 0.00 | 0.00 | 22 | 1015.2 |
| 20260901144538 | 68 | 252 | 0.9 | 10.4 | 0.00 | 0.00 | 0.00 | 22 | 1015.1 |
| 20260901144028 | 68 | 249 | 2.6 | 12.2 | 0.00 | 0.00 | 0.00 | 23 | 1015.0 |
| 20260901143528 | 67 | 238 | 6.1 | 12.2 | 0.00 | 0.00 | 0.00 | 23 | 1015.0 |
| 20260901143028 | 67 | 245 | 6.1 | 13.9 | 0.00 | 0.00 | 0.00 | 25 | 1015.1 |
| 20260901142527 | 67 | 246 | 5.2 | 13.9 | 0.00 | 0.00 | 0.00 | 25 | 1015.1 |
| 20260901142027 | 66 | 258 | 2.6 | 8.7 | 0.00 | 0.00 | 0.00 | 27 | 1015.0 |
| 20260901141526 | 67 | 283 | 4.3 | 11.3 | 0.00 | 0.00 | 0.00 | 27 | 1015.0 |
| 20260901141026 | 66 | 269 | 5.2 | 12.2 | 0.00 | 0.00 | 0.00 | 26 | 1015.0 |
| 20260901140525 | 66 | 277 | 7.0 | 12.2 | 0.00 | 0.00 | 0.00 | 27 | 1014.9 |
| 20260901140029 | 66 | 266 | 3.5 | 10.4 | 0.00 | 0.00 | 0.00 | 27 | 1014.9 |
| 20260901135524 | 66 | 269 | 5.2 | 11.3 | 0.00 | 0.00 | 0.00 | 27 | 1014.8 |
| 20260901135026 | 65 | 269 | 6.1 | 10.4 | 0.00 | 0.00 | 0.00 | 28 | 1014.8 |
| 20260901134522 | 64 | 290 | 1.7 | 7.0 | 0.00 | 0.00 | 0.00 | 27 | 1014.7 |
| 20260901134026 | 64 | 274 | 0.9 | 7.0 | 0.00 | 0.00 | 0.00 | 29 | 1014.7 |
| 20260901133523 | 64 | 315 | 0.9 | 7.0 | 0.00 | 0.00 | 0.00 | 29 | 1014.6 |
| 20260901133022 | 64 | 290 | 0.0 | 2.6 | 0.00 | 0.00 | 0.00 | 29 | 1014.6 |
| 20260901132524 | 64 | 324 | 0.0 | 3.5 | 0.00 | 0.00 | 0.00 | 29 | 1014.7 |
| 20260901132024 | 64 | 320 | 0.0 | 5.2 | 0.00 | 0.00 | 0.00 | 29 | 1014.7 |
| 20260901131532 | 65 | 327 | 0.0 | 5.2 | 0.00 | 0.00 | 0.00 | 28 | 1014.7 |
| 20260901131021 | 65 | 267 | 0.0 | 3.5 | 0.00 | 0.00 | 0.00 | 28 | 1014.6 |
| 20260901130525 | 66 | 271 | 0.9 | 3.5 | 0.00 | 0.00 | 0.00 | 27 | 1014.5 |
| 20260901130018 | 66 | 261 | 0.0 | 4.3 | 0.00 | 0.00 | 0.00 | 28 | 1014.6 |
| 20260901125517 | 66 | 281 | 0.9 | 4.3 | 0.00 | 0.00 | 0.00 | 28 | 1014.6 |
| 20260901125018 | 65 | 273 | 0.0 | 3.5 | 0.00 | 0.00 | 0.00 | 28 | 1014.5 |
| 20260901124518 | 65 | 268 | 0.9 | 5.2 | 0.00 | 0.00 | 0.00 | 28 | 1014.5 |
| 20260901124016 | 65 | 271 | 1.7 | 6.1 | 0.00 | 0.00 | 0.00 | 28 | 1014.4 |
| 20260901123516 | 65 | 275 | 0.9 | 4.3 | 0.00 | 0.00 | 0.00 | 28 | 1014.4 |
| 20260901123017 | 66 | 277 | 0.0 | 2.6 | 0.00 | 0.00 | 0.00 | 28 | 1014.4 |
| 20260901122515 | 66 | 262 | 0.0 | 5.2 | 0.00 | 0.00 | 0.00 | 27 | 1014.3 |
| 20260901122016 | 66 | 269 | 0.0 | 6.1 | 0.00 | 0.00 | 0.00 | 28 | 1014.3 |
| 20260901121517 | 66 | 329 | 0.9 | 7.0 | 0.00 | 0.00 | 0.00 | 27 | 1014.2 |
| 20260901121013 | 66 | 281 | 2.6 | 7.0 | 0.00 | 0.00 | 0.00 | 27 | 1014.2 |
| 20260901120513 | 66 | 255 | 0.0 | 6.1 | 0.00 | 0.00 | 0.00 | 27 | 1014.2 |
| 20260901120018 | 67 | 290 | 0.0 | 6.1 | 0.00 | 0.00 | 0.00 | 28 | 1014.2 |
| 20260901115512 | 67 | 294 | 1.7 | 7.0 | 0.00 | 0.00 | 0.00 | 28 | 1014.3 |
| 20260901115011 | 67 | 292 | 0.0 | 8.7 | 0.00 | 0.00 | 0.00 | 27 | 1014.2 |
| 20260901114511 | 67 | 260 | 3.5 | 8.7 | 0.00 | 0.00 | 0.00 | 27 | 1014.2 |
| 20260901114111 | 67 | 269 | 0.9 | 10.4 | 0.00 | 0.00 | 0.00 | 28 | 1014.3 |
| 20260901113512 | 67 | 309 | 2.6 | 10.4 | 0.00 | 0.00 | 0.00 | 27 | 1014.2 |